Year,Month,Day,Hour,Minute,Value (Times are PST for temperature in C)
2010,08,21,00,00,10.80
2010,08,21,00,01,10.80
2010,08,21,00,02,10.80
2010,08,21,00,03,10.80
2010,08,21,00,04,10.80
2010,08,21,00,05,10.80
2010,08,21,00,06,10.80
2010,08,21,00,07,10.70
2010,08,21,00,08,10.70
2010,08,21,00,09,10.70
2010,08,21,00,10,10.70
2010,08,21,00,11,10.70
2010,08,21,00,12,10.70
2010,08,21,00,13,10.70
2010,08,21,00,14,10.70
2010,08,21,00,15,10.60
2010,08,21,00,16,10.60
2010,08,21,00,17,10.60
2010,08,21,00,18,10.60
2010,08,21,00,19,10.60
2010,08,21,00,20,10.60
2010,08,21,00,21,10.60
2010,08,21,00,22,10.50
2010,08,21,00,23,10.40
2010,08,21,00,24,10.40
2010,08,21,00,25,10.40
2010,08,21,00,26,10.40
2010,08,21,00,27,10.40
2010,08,21,00,28,10.40
2010,08,21,00,29,10.30
2010,08,21,00,30,10.30
2010,08,21,00,31,10.30
2010,08,21,00,32,10.30
2010,08,21,00,33,10.30
2010,08,21,00,34,10.30
2010,08,21,00,35,10.30
2010,08,21,00,36,10.20
2010,08,21,00,37,10.20
2010,08,21,00,38,10.20
2010,08,21,00,39,10.20
2010,08,21,00,40,10.20
2010,08,21,00,41,10.10
2010,08,21,00,42,10.10
2010,08,21,00,43,10.10
2010,08,21,00,44,10.10
2010,08,21,00,45,10.10
2010,08,21,00,46,10.10
2010,08,21,00,47,10.10
2010,08,21,00,48,10.10
2010,08,21,00,49,10.10
2010,08,21,00,50,10.10
2010,08,21,00,51,10.10
2010,08,21,00,52,10.10
2010,08,21,00,53,10.10
2010,08,21,00,54,10.10
2010,08,21,00,55,10.10
2010,08,21,00,56,10.10
2010,08,21,00,57,10.10
2010,08,21,00,58,10.10
2010,08,21,00,59,10.10
2010,08,21,01,00,10.10
2010,08,21,01,01,10.10
2010,08,21,01,02,10.20
2010,08,21,01,03,10.20
2010,08,21,01,04,10.20
2010,08,21,01,05,10.20
2010,08,21,01,06,10.20
2010,08,21,01,07,10.20
2010,08,21,01,08,10.30
2010,08,21,01,09,10.30
2010,08,21,01,10,10.30
2010,08,21,01,11,10.30
2010,08,21,01,12,10.20
2010,08,21,01,13,10.20
2010,08,21,01,14,10.20
2010,08,21,01,15,10.10
2010,08,21,01,16,10.10
2010,08,21,01,17,10.10
2010,08,21,01,18,10.00
2010,08,21,01,19,9.90
2010,08,21,01,20,9.90
2010,08,21,01,21,9.90
2010,08,21,01,22,9.90
2010,08,21,01,23,9.90
2010,08,21,01,24,9.90
2010,08,21,01,25,9.90
2010,08,21,01,26,9.90
2010,08,21,01,27,9.90
2010,08,21,01,28,9.90
2010,08,21,01,29,9.80
2010,08,21,01,30,9.80
2010,08,21,01,31,9.80
2010,08,21,01,32,9.80
2010,08,21,01,33,9.80
2010,08,21,01,34,9.70
2010,08,21,01,35,9.70
2010,08,21,01,36,9.70
2010,08,21,01,37,9.70
2010,08,21,01,38,9.70
2010,08,21,01,39,9.70
2010,08,21,01,40,9.70
2010,08,21,01,41,9.60
2010,08,21,01,42,9.60
2010,08,21,01,43,9.60
2010,08,21,01,44,9.60
2010,08,21,01,45,9.60
2010,08,21,01,46,9.60
2010,08,21,01,47,9.60
2010,08,21,01,48,9.50
2010,08,21,01,49,9.50
2010,08,21,01,50,9.50
2010,08,21,01,51,9.50
2010,08,21,01,52,9.50
2010,08,21,01,53,9.50
2010,08,21,01,54,9.50
2010,08,21,01,55,9.50
2010,08,21,01,56,9.50
2010,08,21,01,57,9.50
2010,08,21,01,58,9.50
2010,08,21,01,59,9.50
2010,08,21,02,00,9.40
2010,08,21,02,01,9.40
2010,08,21,02,02,9.40
2010,08,21,02,03,9.40
2010,08,21,02,04,9.30
2010,08,21,02,05,9.30
2010,08,21,02,06,9.20
2010,08,21,02,07,9.20
2010,08,21,02,08,9.20
2010,08,21,02,09,9.20
2010,08,21,02,10,9.10
2010,08,21,02,11,9.10
2010,08,21,02,12,9.00
2010,08,21,02,13,9.00
2010,08,21,02,14,9.00
2010,08,21,02,15,9.00
2010,08,21,02,16,9.00
2010,08,21,02,17,9.00
2010,08,21,02,18,9.00
2010,08,21,02,19,9.00
2010,08,21,02,20,9.00
2010,08,21,02,21,9.00
2010,08,21,02,22,9.00
2010,08,21,02,23,9.00
2010,08,21,02,24,9.00
2010,08,21,02,25,9.00
2010,08,21,02,26,9.10
2010,08,21,02,27,9.10
2010,08,21,02,28,9.10
2010,08,21,02,29,9.10
2010,08,21,02,30,9.10
2010,08,21,02,31,9.10
2010,08,21,02,32,9.10
2010,08,21,02,33,9.10
2010,08,21,02,34,9.10
2010,08,21,02,35,9.10
2010,08,21,02,36,9.10
2010,08,21,02,37,9.10
2010,08,21,02,38,9.00
2010,08,21,02,39,9.00
2010,08,21,02,40,9.00
2010,08,21,02,41,9.00
2010,08,21,02,42,9.00
2010,08,21,02,43,9.00
2010,08,21,02,44,9.00
2010,08,21,02,45,9.00
2010,08,21,02,46,9.00
2010,08,21,02,47,8.90
2010,08,21,02,48,8.90
2010,08,21,02,49,8.90
2010,08,21,02,50,8.90
2010,08,21,02,51,8.90
2010,08,21,02,52,8.90
2010,08,21,02,53,8.90
2010,08,21,02,54,8.90
2010,08,21,02,55,8.80
2010,08,21,02,56,8.80
2010,08,21,02,57,8.80
2010,08,21,02,58,8.90
2010,08,21,02,59,8.80
2010,08,21,03,00,8.80
2010,08,21,03,01,8.90
2010,08,21,03,02,8.90
2010,08,21,03,03,8.90
2010,08,21,03,04,8.90
2010,08,21,03,05,8.90
2010,08,21,03,06,8.90
2010,08,21,03,07,8.90
2010,08,21,03,08,8.90
2010,08,21,03,09,8.90
2010,08,21,03,10,8.90
2010,08,21,03,11,8.90
2010,08,21,03,12,8.80
2010,08,21,03,13,8.80
2010,08,21,03,14,8.80
2010,08,21,03,15,8.80
2010,08,21,03,16,8.80
2010,08,21,03,17,8.80
2010,08,21,03,18,8.70
2010,08,21,03,19,8.70
2010,08,21,03,20,8.70
2010,08,21,03,21,8.70
2010,08,21,03,22,8.70
2010,08,21,03,23,8.70
2010,08,21,03,24,8.70
2010,08,21,03,25,8.70
2010,08,21,03,26,8.70
2010,08,21,03,27,8.70
2010,08,21,03,28,8.70
2010,08,21,03,29,8.70
2010,08,21,03,30,8.70
2010,08,21,03,31,8.70
2010,08,21,03,32,8.70
2010,08,21,03,33,8.70
2010,08,21,03,34,8.70
2010,08,21,03,35,8.70
2010,08,21,03,36,8.70
2010,08,21,03,37,8.70
2010,08,21,03,38,8.70
2010,08,21,03,39,8.70
2010,08,21,03,40,8.60
2010,08,21,03,41,8.60
2010,08,21,03,42,8.50
2010,08,21,03,43,8.50
2010,08,21,03,44,8.50
2010,08,21,03,45,8.50
2010,08,21,03,46,8.40
2010,08,21,03,47,8.40
2010,08,21,03,48,8.40
2010,08,21,03,49,8.40
2010,08,21,03,50,8.40
2010,08,21,03,51,8.40
2010,08,21,03,52,8.40
2010,08,21,03,53,8.40
2010,08,21,03,54,8.30
2010,08,21,03,55,8.30
2010,08,21,03,56,8.30
2010,08,21,03,57,8.30
2010,08,21,03,58,8.30
2010,08,21,03,59,8.30
2010,08,21,04,00,8.20
2010,08,21,04,01,8.20
2010,08,21,04,02,8.20
2010,08,21,04,03,8.20
2010,08,21,04,04,8.20
2010,08,21,04,05,8.20
2010,08,21,04,06,8.20
2010,08,21,04,07,8.20
2010,08,21,04,08,8.20
2010,08,21,04,09,8.20
2010,08,21,04,10,8.20
2010,08,21,04,11,8.20
2010,08,21,04,12,8.20
2010,08,21,04,13,8.20
2010,08,21,04,14,8.20
2010,08,21,04,15,8.20
2010,08,21,04,16,8.20
2010,08,21,04,17,8.20
2010,08,21,04,18,8.20
2010,08,21,04,19,8.10
2010,08,21,04,20,8.10
2010,08,21,04,21,8.10
2010,08,21,04,22,8.10
2010,08,21,04,23,8.10
2010,08,21,04,24,8.00
2010,08,21,04,25,8.00
2010,08,21,04,26,8.00
2010,08,21,04,27,8.00
2010,08,21,04,28,8.00
2010,08,21,04,29,8.00
2010,08,21,04,30,8.00
2010,08,21,04,31,8.00
2010,08,21,04,32,7.90
2010,08,21,04,33,7.90
2010,08,21,04,34,7.80
2010,08,21,04,35,7.80
2010,08,21,04,36,7.80
2010,08,21,04,37,7.80
2010,08,21,04,38,7.80
2010,08,21,04,39,7.80
2010,08,21,04,40,7.80
2010,08,21,04,41,7.70
2010,08,21,04,42,7.70
2010,08,21,04,43,7.70
2010,08,21,04,44,7.70
2010,08,21,04,45,7.70
2010,08,21,04,46,7.80
2010,08,21,04,47,7.80
2010,08,21,04,48,7.80
2010,08,21,04,49,7.70
2010,08,21,04,50,7.70
2010,08,21,04,51,7.80
2010,08,21,04,52,7.80
2010,08,21,04,53,7.80
2010,08,21,04,54,7.80
2010,08,21,04,55,7.80
2010,08,21,04,56,7.80
2010,08,21,04,57,7.80
2010,08,21,04,58,7.80
2010,08,21,04,59,7.80
2010,08,21,05,00,7.80
2010,08,21,05,01,7.70
2010,08,21,05,02,7.70
2010,08,21,05,03,7.70
2010,08,21,05,04,7.70
2010,08,21,05,05,7.70
2010,08,21,05,06,7.70
2010,08,21,05,07,7.60
2010,08,21,05,08,7.60
2010,08,21,05,09,7.60
2010,08,21,05,10,7.60
2010,08,21,05,11,7.60
2010,08,21,05,12,7.60
2010,08,21,05,13,7.60
2010,08,21,05,14,7.70
2010,08,21,05,15,7.70
2010,08,21,05,16,7.70
2010,08,21,05,17,7.70
2010,08,21,05,18,7.70
2010,08,21,05,19,7.70
2010,08,21,05,20,7.80
2010,08,21,05,21,7.80
2010,08,21,05,22,7.80
2010,08,21,05,23,7.80
2010,08,21,05,24,7.80
2010,08,21,05,25,7.80
2010,08,21,05,26,7.80
2010,08,21,05,27,7.80
2010,08,21,05,28,7.80
2010,08,21,05,29,7.80
2010,08,21,05,30,7.80
2010,08,21,05,31,7.80
2010,08,21,05,32,7.80
2010,08,21,05,33,7.80
2010,08,21,05,34,7.80
2010,08,21,05,35,7.80
2010,08,21,05,36,7.80
2010,08,21,05,37,7.80
2010,08,21,05,38,7.80
2010,08,21,05,39,7.80
2010,08,21,05,40,7.80
2010,08,21,05,41,7.80
2010,08,21,05,42,7.80
2010,08,21,05,43,7.80
2010,08,21,05,44,7.70
2010,08,21,05,45,7.70
2010,08,21,05,46,7.70
2010,08,21,05,47,7.70
2010,08,21,05,48,7.60
2010,08,21,05,49,7.60
2010,08,21,05,50,7.60
2010,08,21,05,51,7.60
2010,08,21,05,52,7.60
2010,08,21,05,53,7.60
2010,08,21,05,54,7.60
2010,08,21,05,55,7.60
2010,08,21,05,56,7.60
2010,08,21,05,57,7.60
2010,08,21,05,58,7.50
2010,08,21,05,59,7.50
2010,08,21,06,00,7.50
2010,08,21,06,01,7.50
2010,08,21,06,02,7.50
2010,08,21,06,03,7.50
2010,08,21,06,04,7.50
2010,08,21,06,05,7.50
2010,08,21,06,06,7.50
2010,08,21,06,07,7.50
2010,08,21,06,08,7.40
2010,08,21,06,09,7.40
2010,08,21,06,10,7.40
2010,08,21,06,11,7.40
2010,08,21,06,12,7.40
2010,08,21,06,13,7.40
2010,08,21,06,14,7.40
2010,08,21,06,15,7.40
2010,08,21,06,16,7.40
2010,08,21,06,17,7.40
2010,08,21,06,18,7.50
2010,08,21,06,19,7.50
2010,08,21,06,20,7.50
2010,08,21,06,21,7.50
2010,08,21,06,22,7.60
2010,08,21,06,23,7.60
2010,08,21,06,24,7.60
2010,08,21,06,25,7.60
2010,08,21,06,26,7.60
2010,08,21,06,27,7.70
2010,08,21,06,28,7.70
2010,08,21,06,29,7.70
2010,08,21,06,30,7.70
2010,08,21,06,31,7.70
2010,08,21,06,32,7.70
2010,08,21,06,33,7.70
2010,08,21,06,34,7.70
2010,08,21,06,35,7.70
2010,08,21,06,36,7.70
2010,08,21,06,37,7.70
2010,08,21,06,38,7.70
2010,08,21,06,39,7.70
2010,08,21,06,40,7.60
2010,08,21,06,41,7.60
2010,08,21,06,42,7.60
2010,08,21,06,43,7.60
2010,08,21,06,44,7.60
2010,08,21,06,45,7.50
2010,08,21,06,46,7.50
2010,08,21,06,47,7.50
2010,08,21,06,48,7.50
2010,08,21,06,49,7.60
2010,08,21,06,50,7.60
2010,08,21,06,51,7.60
2010,08,21,06,52,7.60
2010,08,21,06,53,7.60
2010,08,21,06,54,7.60
2010,08,21,06,55,7.60
2010,08,21,06,56,7.60
2010,08,21,06,57,7.60
2010,08,21,06,58,7.60
2010,08,21,06,59,7.60
2010,08,21,07,00,7.60
2010,08,21,07,01,7.60
2010,08,21,07,02,7.50
2010,08,21,07,03,7.60
2010,08,21,07,04,7.60
2010,08,21,07,05,7.60
2010,08,21,07,06,7.60
2010,08,21,07,07,7.70
2010,08,21,07,08,7.70
2010,08,21,07,09,7.70
2010,08,21,07,10,7.70
2010,08,21,07,11,7.80
2010,08,21,07,12,7.80
2010,08,21,07,13,7.80
2010,08,21,07,14,7.90
2010,08,21,07,15,8.00
2010,08,21,07,16,8.00
2010,08,21,07,17,8.10
2010,08,21,07,18,8.20
2010,08,21,07,19,8.20
2010,08,21,07,20,8.20
2010,08,21,07,21,8.30
2010,08,21,07,22,8.30
2010,08,21,07,23,8.40
2010,08,21,07,24,8.40
2010,08,21,07,25,8.50
2010,08,21,07,26,8.50
2010,08,21,07,27,8.60
2010,08,21,07,28,8.60
2010,08,21,07,29,8.70
2010,08,21,07,30,8.70
2010,08,21,07,31,8.80
2010,08,21,07,32,8.90
2010,08,21,07,33,9.00
2010,08,21,07,34,9.00
2010,08,21,07,35,9.10
2010,08,21,07,36,9.20
2010,08,21,07,37,9.20
2010,08,21,07,38,9.30
2010,08,21,07,39,9.40
2010,08,21,07,40,9.40
2010,08,21,07,41,9.50
2010,08,21,07,42,9.60
2010,08,21,07,43,9.70
2010,08,21,07,44,9.70
2010,08,21,07,45,9.70
2010,08,21,07,46,9.80
2010,08,21,07,47,9.90
2010,08,21,07,48,9.90
2010,08,21,07,49,10.10
2010,08,21,07,50,10.10
2010,08,21,07,51,10.20
2010,08,21,07,52,10.30
2010,08,21,07,53,10.40
2010,08,21,07,54,10.50
2010,08,21,07,55,10.60
2010,08,21,07,56,10.70
2010,08,21,07,57,10.80
2010,08,21,07,58,10.90
2010,08,21,07,59,10.90
2010,08,21,08,00,11.00
2010,08,21,08,01,11.10
2010,08,21,08,02,11.20
2010,08,21,08,03,11.20
2010,08,21,08,04,11.30
2010,08,21,08,05,11.30
2010,08,21,08,06,11.40
2010,08,21,08,07,11.40
2010,08,21,08,08,11.40
2010,08,21,08,09,11.60
2010,08,21,08,10,11.60
2010,08,21,08,11,11.60
2010,08,21,08,12,11.70
2010,08,21,08,13,11.80
2010,08,21,08,14,11.80
2010,08,21,08,15,11.80
2010,08,21,08,16,11.90
2010,08,21,08,17,12.00
2010,08,21,08,18,12.00
2010,08,21,08,19,12.10
2010,08,21,08,20,12.20
2010,08,21,08,21,12.20
2010,08,21,08,22,12.30
2010,08,21,08,23,12.30
2010,08,21,08,24,12.40
2010,08,21,08,25,12.50
2010,08,21,08,26,12.60
2010,08,21,08,27,12.70
2010,08,21,08,28,12.70
2010,08,21,08,29,12.80
2010,08,21,08,30,12.90
2010,08,21,08,31,12.90
2010,08,21,08,32,13.00
2010,08,21,08,33,13.10
2010,08,21,08,34,13.20
2010,08,21,08,35,13.30
2010,08,21,08,36,13.40
2010,08,21,08,37,13.50
2010,08,21,08,38,13.60
2010,08,21,08,39,13.70
2010,08,21,08,40,13.80
2010,08,21,08,41,13.90
2010,08,21,08,42,14.00
2010,08,21,08,43,14.20
2010,08,21,08,44,14.30
2010,08,21,08,45,14.40
2010,08,21,08,46,14.50
2010,08,21,08,47,14.60
2010,08,21,08,48,14.70
2010,08,21,08,49,14.80
2010,08,21,08,50,14.90
2010,08,21,08,51,15.00
2010,08,21,08,52,15.10
2010,08,21,08,53,15.20
2010,08,21,08,54,15.30
2010,08,21,08,55,15.40
2010,08,21,08,56,15.50
2010,08,21,08,57,15.60
2010,08,21,08,58,15.80
2010,08,21,08,59,15.80
2010,08,21,09,00,16.00
2010,08,21,09,01,16.10
2010,08,21,09,02,16.10
2010,08,21,09,03,16.10
2010,08,21,09,04,16.40
2010,08,21,09,05,16.40
2010,08,21,09,06,16.60
2010,08,21,09,07,16.70
2010,08,21,09,08,16.80
2010,08,21,09,09,16.90
2010,08,21,09,10,17.00
2010,08,21,09,11,17.10
2010,08,21,09,12,17.20
2010,08,21,09,13,17.20
2010,08,21,09,14,17.30
2010,08,21,09,15,17.30
2010,08,21,09,16,17.50
2010,08,21,09,17,17.50
2010,08,21,09,18,17.60
2010,08,21,09,19,17.50
2010,08,21,09,20,17.30
2010,08,21,09,21,17.10
2010,08,21,09,22,16.80
2010,08,21,09,23,16.70
2010,08,21,09,24,16.50
2010,08,21,09,25,16.40
2010,08,21,09,26,16.20
2010,08,21,09,27,16.00
2010,08,21,09,28,15.90
2010,08,21,09,29,15.80
2010,08,21,09,30,15.70
2010,08,21,09,31,15.70
2010,08,21,09,32,15.70
2010,08,21,09,33,15.60
2010,08,21,09,34,15.60
2010,08,21,09,35,15.50
2010,08,21,09,36,15.50
2010,08,21,09,37,15.50
2010,08,21,09,38,15.40
2010,08,21,09,39,15.40
2010,08,21,09,40,15.30
2010,08,21,09,41,15.30
2010,08,21,09,42,15.30
2010,08,21,09,43,15.20
2010,08,21,09,44,15.20
2010,08,21,09,45,15.20
2010,08,21,09,46,15.30
2010,08,21,09,47,15.30
2010,08,21,09,48,15.30
2010,08,21,09,49,15.30
2010,08,21,09,50,15.30
2010,08,21,09,51,15.30
2010,08,21,09,52,15.40
2010,08,21,09,53,15.40
2010,08,21,09,54,15.50
2010,08,21,09,55,15.60
2010,08,21,09,56,15.60
2010,08,21,09,57,15.70
2010,08,21,09,58,15.80
2010,08,21,09,59,15.80
2010,08,21,10,00,15.80
2010,08,21,10,01,15.80
2010,08,21,10,02,15.80
2010,08,21,10,03,15.80
2010,08,21,10,04,15.70
2010,08,21,10,05,15.70
2010,08,21,10,06,15.70
2010,08,21,10,07,15.70
2010,08,21,10,08,15.70
2010,08,21,10,09,15.70
2010,08,21,10,10,15.60
2010,08,21,10,11,15.50
2010,08,21,10,12,15.50
2010,08,21,10,13,15.50
2010,08,21,10,14,15.50
2010,08,21,10,15,15.50
2010,08,21,10,16,15.50
2010,08,21,10,17,15.50
2010,08,21,10,18,15.50
2010,08,21,10,19,15.60
2010,08,21,10,20,15.70
2010,08,21,10,21,15.70
2010,08,21,10,22,15.80
2010,08,21,10,23,15.80
2010,08,21,10,24,15.90
2010,08,21,10,25,16.00
2010,08,21,10,26,16.10
2010,08,21,10,27,16.20
2010,08,21,10,28,16.30
2010,08,21,10,29,16.40
2010,08,21,10,30,16.40
2010,08,21,10,31,16.50
2010,08,21,10,32,16.60
2010,08,21,10,33,16.60
2010,08,21,10,34,16.60
2010,08,21,10,35,16.70
2010,08,21,10,36,16.70
2010,08,21,10,37,16.70
2010,08,21,10,38,16.70
2010,08,21,10,39,16.60
2010,08,21,10,40,16.60
2010,08,21,10,41,16.60
2010,08,21,10,42,16.60
2010,08,21,10,43,16.60
2010,08,21,10,44,16.60
2010,08,21,10,45,16.50
2010,08,21,10,46,16.40
2010,08,21,10,47,16.40
2010,08,21,10,48,16.40
2010,08,21,10,49,16.40
2010,08,21,10,50,16.40
2010,08,21,10,51,16.40
2010,08,21,10,52,16.60
2010,08,21,10,53,16.70
2010,08,21,10,54,16.70
2010,08,21,10,55,16.80
2010,08,21,10,56,16.80
2010,08,21,10,57,16.70
2010,08,21,10,58,16.70
2010,08,21,10,59,16.80
2010,08,21,11,00,16.90
2010,08,21,11,01,16.90
2010,08,21,11,02,16.90
2010,08,21,11,03,17.00
2010,08,21,11,04,17.10
2010,08,21,11,05,17.20
2010,08,21,11,06,17.40
2010,08,21,11,07,17.60
2010,08,21,11,08,17.70
2010,08,21,11,09,17.70
2010,08,21,11,10,17.60
2010,08,21,11,11,17.60
2010,08,21,11,12,17.60
2010,08,21,11,13,17.70
2010,08,21,11,14,17.80
2010,08,21,11,15,17.90
2010,08,21,11,16,18.00
2010,08,21,11,17,18.20
2010,08,21,11,18,18.40
2010,08,21,11,19,18.60
2010,08,21,11,20,18.70
2010,08,21,11,21,18.80
2010,08,21,11,22,18.90
2010,08,21,11,23,18.90
2010,08,21,11,24,18.90
2010,08,21,11,25,18.80
2010,08,21,11,26,18.90
2010,08,21,11,27,19.00
2010,08,21,11,28,19.10
2010,08,21,11,29,19.20
2010,08,21,11,30,19.30
2010,08,21,11,31,19.40
2010,08,21,11,32,19.40
2010,08,21,11,33,19.50
2010,08,21,11,34,19.60
2010,08,21,11,35,19.60
2010,08,21,11,36,19.60
2010,08,21,11,37,19.60
2010,08,21,11,38,19.60
2010,08,21,11,39,19.60
2010,08,21,11,40,19.50
2010,08,21,11,41,19.40
2010,08,21,11,42,19.40
2010,08,21,11,43,19.30
2010,08,21,11,44,19.40
2010,08,21,11,45,19.40
2010,08,21,11,46,19.30
2010,08,21,11,47,19.20
2010,08,21,11,48,19.10
2010,08,21,11,49,19.10
2010,08,21,11,50,19.20
2010,08,21,11,51,19.20
2010,08,21,11,52,19.30
2010,08,21,11,53,19.30
2010,08,21,11,54,19.30
2010,08,21,11,55,19.30
2010,08,21,11,56,19.40
2010,08,21,11,57,19.40
2010,08,21,11,58,19.40
2010,08,21,11,59,19.40
2010,08,21,12,00,19.50
2010,08,21,12,01,19.60
2010,08,21,12,02,19.60
2010,08,21,12,03,19.50
2010,08,21,12,04,19.60
2010,08,21,12,05,19.70
2010,08,21,12,06,19.80
2010,08,21,12,07,19.90
2010,08,21,12,08,19.90
2010,08,21,12,09,19.90
2010,08,21,12,10,19.90
2010,08,21,12,11,19.80
2010,08,21,12,12,19.60
2010,08,21,12,13,19.60
2010,08,21,12,14,19.50
2010,08,21,12,15,19.50
2010,08,21,12,16,19.40
2010,08,21,12,17,19.40
2010,08,21,12,18,19.40
2010,08,21,12,19,19.40
2010,08,21,12,20,19.50
2010,08,21,12,21,19.50
2010,08,21,12,22,19.60
2010,08,21,12,23,19.60
2010,08,21,12,24,19.60
2010,08,21,12,25,19.60
2010,08,21,12,26,19.70
2010,08,21,12,27,19.80
2010,08,21,12,28,19.90
2010,08,21,12,29,19.90
2010,08,21,12,30,19.90
2010,08,21,12,31,20.00
2010,08,21,12,32,20.10
2010,08,21,12,33,20.10
2010,08,21,12,34,20.10
2010,08,21,12,35,20.10
2010,08,21,12,36,20.10
2010,08,21,12,37,19.90
2010,08,21,12,38,19.80
2010,08,21,12,39,19.80
2010,08,21,12,40,19.80
2010,08,21,12,41,19.80
2010,08,21,12,42,19.80
2010,08,21,12,43,19.90
2010,08,21,12,44,19.90
2010,08,21,12,45,19.90
2010,08,21,12,46,19.90
2010,08,21,12,47,19.90
2010,08,21,12,48,19.90
2010,08,21,12,49,19.90
2010,08,21,12,50,19.90
2010,08,21,12,51,19.90
2010,08,21,12,52,20.00
2010,08,21,12,53,20.00
2010,08,21,12,54,19.90
2010,08,21,12,55,19.90
2010,08,21,12,56,20.00
2010,08,21,12,57,20.10
2010,08,21,12,58,20.10
2010,08,21,12,59,20.10
2010,08,21,13,00,19.90
2010,08,21,13,01,19.90
2010,08,21,13,02,19.90
2010,08,21,13,03,19.90
2010,08,21,13,04,19.90
2010,08,21,13,05,20.00
2010,08,21,13,06,20.10
2010,08,21,13,07,20.20
2010,08,21,13,08,20.20
2010,08,21,13,09,20.30
2010,08,21,13,10,20.20
2010,08,21,13,11,20.20
2010,08,21,13,12,20.10
2010,08,21,13,13,20.00
2010,08,21,13,14,19.90
2010,08,21,13,15,19.90
2010,08,21,13,16,20.00
2010,08,21,13,17,20.10
2010,08,21,13,18,20.10
2010,08,21,13,19,20.10
2010,08,21,13,20,20.10
2010,08,21,13,21,20.20
2010,08,21,13,22,20.10
2010,08,21,13,23,20.10
2010,08,21,13,24,20.20
2010,08,21,13,25,20.20
2010,08,21,13,26,20.30
2010,08,21,13,27,20.40
2010,08,21,13,28,20.40
2010,08,21,13,29,20.40
2010,08,21,13,30,20.40
2010,08,21,13,31,20.20
2010,08,21,13,32,20.20
2010,08,21,13,33,20.20
2010,08,21,13,34,20.20
2010,08,21,13,35,20.30
2010,08,21,13,36,20.30
2010,08,21,13,37,20.30
2010,08,21,13,38,20.30
2010,08,21,13,39,20.30
2010,08,21,13,40,20.30
2010,08,21,13,41,20.30
2010,08,21,13,42,20.30
2010,08,21,13,43,20.20
2010,08,21,13,44,20.20
2010,08,21,13,45,20.20
2010,08,21,13,46,20.20
2010,08,21,13,47,20.30
2010,08,21,13,48,20.30
2010,08,21,13,49,20.30
2010,08,21,13,50,20.20
2010,08,21,13,51,20.20
2010,08,21,13,52,20.20
2010,08,21,13,53,20.10
2010,08,21,13,54,20.10
2010,08,21,13,55,20.00
2010,08,21,13,56,19.90
2010,08,21,13,57,19.80
2010,08,21,13,58,19.90
2010,08,21,13,59,19.90
2010,08,21,14,00,20.00
2010,08,21,14,01,20.20
2010,08,21,14,02,20.20
2010,08,21,14,03,20.20
2010,08,21,14,04,20.10
2010,08,21,14,05,20.10
2010,08,21,14,06,20.20
2010,08,21,14,07,20.20
2010,08,21,14,08,20.20
2010,08,21,14,09,20.20
2010,08,21,14,10,20.20
2010,08,21,14,11,20.20
2010,08,21,14,12,20.20
2010,08,21,14,13,20.20
2010,08,21,14,14,20.20
2010,08,21,14,15,20.20
2010,08,21,14,16,20.30
2010,08,21,14,17,20.20
2010,08,21,14,18,20.20
2010,08,21,14,19,20.30
2010,08,21,14,20,20.30
2010,08,21,14,21,20.30
2010,08,21,14,22,20.20
2010,08,21,14,23,20.20
2010,08,21,14,24,20.20
2010,08,21,14,25,20.20
2010,08,21,14,26,20.20
2010,08,21,14,27,20.20
2010,08,21,14,28,20.20
2010,08,21,14,29,20.20
2010,08,21,14,30,20.30
2010,08,21,14,31,20.50
2010,08,21,14,32,20.50
2010,08,21,14,33,20.50
2010,08,21,14,34,20.40
2010,08,21,14,35,20.30
2010,08,21,14,36,20.30
2010,08,21,14,37,20.40
2010,08,21,14,38,20.40
2010,08,21,14,39,20.50
2010,08,21,14,40,20.60
2010,08,21,14,41,20.60
2010,08,21,14,42,20.70
2010,08,21,14,43,20.90
2010,08,21,14,44,20.90
2010,08,21,14,45,21.00
2010,08,21,14,46,21.00
2010,08,21,14,47,21.10
2010,08,21,14,48,21.10
2010,08,21,14,49,21.30
2010,08,21,14,50,21.30
2010,08,21,14,51,21.30
2010,08,21,14,52,21.20
2010,08,21,14,53,21.30
2010,08,21,14,54,21.30
2010,08,21,14,55,21.30
2010,08,21,14,56,21.30
2010,08,21,14,57,21.40
2010,08,21,14,58,21.40
2010,08,21,14,59,21.40
2010,08,21,15,00,21.40
2010,08,21,15,01,21.40
2010,08,21,15,02,21.60
2010,08,21,15,03,21.60
2010,08,21,15,04,21.70
2010,08,21,15,05,21.90
2010,08,21,15,06,22.00
2010,08,21,15,07,22.20
2010,08,21,15,08,22.30
2010,08,21,15,09,22.40
2010,08,21,15,10,22.40
2010,08,21,15,11,22.30
2010,08,21,15,12,22.20
2010,08,21,15,13,22.20
2010,08,21,15,14,22.20
2010,08,21,15,15,22.20
2010,08,21,15,16,22.30
2010,08,21,15,17,22.30
2010,08,21,15,18,22.40
2010,08,21,15,19,22.40
2010,08,21,15,20,22.30
2010,08,21,15,21,22.30
2010,08,21,15,22,22.20
2010,08,21,15,23,22.20
2010,08,21,15,24,22.10
2010,08,21,15,25,22.10
2010,08,21,15,26,22.20
2010,08,21,15,27,22.20
2010,08,21,15,28,22.10
2010,08,21,15,29,22.10
2010,08,21,15,30,22.10
2010,08,21,15,31,22.10
2010,08,21,15,32,22.00
2010,08,21,15,33,22.10
2010,08,21,15,34,22.10
2010,08,21,15,35,22.20
2010,08,21,15,36,22.30
2010,08,21,15,37,22.50
2010,08,21,15,38,22.60
2010,08,21,15,39,22.60
2010,08,21,15,40,22.70
2010,08,21,15,41,22.80
2010,08,21,15,42,22.90
2010,08,21,15,43,22.90
2010,08,21,15,44,22.90
2010,08,21,15,45,22.90
2010,08,21,15,46,22.90
2010,08,21,15,47,23.10
2010,08,21,15,48,23.10
2010,08,21,15,49,23.10
2010,08,21,15,50,23.10
2010,08,21,15,51,23.10
2010,08,21,15,52,23.10
2010,08,21,15,53,23.10
2010,08,21,15,54,23.10
2010,08,21,15,55,23.10
2010,08,21,15,56,23.10
2010,08,21,15,57,23.00
2010,08,21,15,58,22.90
2010,08,21,15,59,22.80
2010,08,21,16,00,22.80
2010,08,21,16,01,22.80
2010,08,21,16,02,22.80
2010,08,21,16,03,22.70
2010,08,21,16,04,22.60
2010,08,21,16,05,22.50
2010,08,21,16,06,22.40
2010,08,21,16,07,22.50
2010,08,21,16,08,22.50
2010,08,21,16,09,22.60
2010,08,21,16,10,22.60
2010,08,21,16,11,22.60
2010,08,21,16,12,22.60
2010,08,21,16,13,22.60
2010,08,21,16,14,22.70
2010,08,21,16,15,22.70
2010,08,21,16,16,22.70
2010,08,21,16,17,22.80
2010,08,21,16,18,22.80
2010,08,21,16,19,22.80
2010,08,21,16,20,22.80
2010,08,21,16,21,22.80
2010,08,21,16,22,22.80
2010,08,21,16,23,22.80
2010,08,21,16,24,22.80
2010,08,21,16,25,22.80
2010,08,21,16,26,22.90
2010,08,21,16,27,22.90
2010,08,21,16,28,23.00
2010,08,21,16,29,23.10
2010,08,21,16,30,23.10
2010,08,21,16,31,23.20
2010,08,21,16,32,23.20
2010,08,21,16,33,23.30
2010,08,21,16,34,23.30
2010,08,21,16,35,23.30
2010,08,21,16,36,23.30
2010,08,21,16,37,23.30
2010,08,21,16,38,23.30
2010,08,21,16,39,23.20
2010,08,21,16,40,23.10
2010,08,21,16,41,22.90
2010,08,21,16,42,22.90
2010,08,21,16,43,22.90
2010,08,21,16,44,22.90
2010,08,21,16,45,22.80
2010,08,21,16,46,22.80
2010,08,21,16,47,22.70
2010,08,21,16,48,22.70
2010,08,21,16,49,22.60
2010,08,21,16,50,22.60
2010,08,21,16,51,22.60
2010,08,21,16,52,22.50
2010,08,21,16,53,22.50
2010,08,21,16,54,22.50
2010,08,21,16,55,22.50
2010,08,21,16,56,22.50
2010,08,21,16,57,22.40
2010,08,21,16,58,22.40
2010,08,21,16,59,22.30
2010,08,21,17,00,22.30
2010,08,21,17,01,22.20
2010,08,21,17,02,22.20
2010,08,21,17,03,22.20
2010,08,21,17,04,22.20
2010,08,21,17,05,22.20
2010,08,21,17,06,22.10
2010,08,21,17,07,22.10
2010,08,21,17,08,22.10
2010,08,21,17,09,22.10
2010,08,21,17,10,22.10
2010,08,21,17,11,22.10
2010,08,21,17,12,22.20
2010,08,21,17,13,22.20
2010,08,21,17,14,22.30
2010,08,21,17,15,22.30
2010,08,21,17,16,22.30
2010,08,21,17,17,22.30
2010,08,21,17,18,22.30
2010,08,21,17,19,22.40
2010,08,21,17,20,22.40
2010,08,21,17,21,22.40
2010,08,21,17,22,22.40
2010,08,21,17,23,22.40
2010,08,21,17,24,22.40
2010,08,21,17,25,22.30
2010,08,21,17,26,22.20
2010,08,21,17,27,22.20
2010,08,21,17,28,22.20
2010,08,21,17,29,22.20
2010,08,21,17,30,22.30
2010,08,21,17,31,22.30
2010,08,21,17,32,22.30
2010,08,21,17,33,22.40
2010,08,21,17,34,22.30
2010,08,21,17,35,22.30
2010,08,21,17,36,22.40